Location: Indian Springs
(36.5700°N, 115.6700°W)
Time: 05:17:30
(UTC-08:00)

Amateur Radio Satellites - All Passes

Search period start: 23 November 2017 04:47
Search period end: 24 November 2017 04:47
Location: Indian Springs, 36.5700°N, 115.6700°W

Satellite Date Start Highest point End Downlink Frequencies (MHz)
Time Altitude Azimuth
AO-7 23 Nov 04:50:22 04:57:22 31° 300° (WNW) 05:04:24 .
CUTE-I 23 Nov 04:54:33 04:57:52 17° 93° (E) 05:01:10 437.470
XW-2C 23 Nov 05:00:06 05:02:53 19° 95° (E) 05:05:40 145.795 - 145.815
KKS-1 23 Nov 05:00:59 05:04:44 26° 263° (W) 05:08:31 437.445
LilacSat-2 23 Nov 05:04:38 05:07:47 24° 96° (E) 05:10:56 437.200
XW-2F 23 Nov 05:08:28 05:11:29 22° 96° (E) 05:14:31 145.980 - 146.000
STARS 23 Nov 05:18:09 05:22:21 43° 261° (W) 05:26:35 437.465
STRAND 1 23 Nov 05:30:58 05:35:08 25° 67° (ENE) 05:39:18 437.568
KAITUO 1B 23 Nov 05:32:00 05:35:29 34° 98° (E) 05:38:57 145.475/437.950
YUBILEINY 23 Nov 05:33:17 05:41:56 65° 280° (W) 05:50:42 435.215
XW-2D 23 Nov 05:52:37 05:56:26 80° 283° (WNW) 06:00:15 145.860 - 145.880
CUTE 1.7 + AOD 2 23 Nov 05:53:51 05:57:01 20° 94° (E) 06:00:10 437.475
RS-15 23 Nov 06:01:12 06:06:20 14° 264° (W) 06:11:24 29.354- 29.394
XW-2B 23 Nov 06:07:37 06:11:21 52° 284° (WNW) 06:15:03 145.730 - 145.750
DOVE 4 23 Nov 06:07:49 06:10:43 15° 296° (WNW) 06:13:32 437.250
SO-50 23 Nov 06:07:57 06:12:36 73° 242° (WSW) 06:17:18 436.795
NUDT-PHONESAT 23 Nov 06:12:24 06:16:06 67° 283° (WNW) 06:19:47 437.300
FO-29 23 Nov 06:15:17 06:20:24 23° 61° (ENE) 06:25:52 435.910
HO-68 23 Nov 06:19:15 06:26:05 45° 100° (E) 06:32:50 435.675
SEEDS 23 Nov 06:19:34 06:23:00 23° 95° (E) 06:26:25 437.485
UWE-3 23 Nov 06:30:08 06:32:33 15° 93° (E) 06:34:59 435.000/436.395/437.385
CUTE-I 23 Nov 06:32:59 06:38:12 54° 287° (WNW) 06:43:23 437.470
XW-2C 23 Nov 06:33:53 06:36:59 24° 289° (WNW) 06:40:06 145.795 - 145.815
LilacSat-2 23 Nov 06:39:03 06:41:53 20° 290° (WNW) 06:44:43 437.200
XW-2F 23 Nov 06:42:35 06:45:27 21° 290° (WNW) 06:48:18 145.980 - 146.000
FALCONSAT 3 23 Nov 06:54:13 06:55:57 13° 150° (SSE) 06:57:40 435.103
XW-2A 23 Nov 06:58:38 07:01:34 27° 97° (E) 07:04:30 145.665 - 145.685
AO-73 23 Nov 07:04:26 07:07:12 17° 94° (E) 07:09:57 145.935
KAITUO 1B 23 Nov 07:07:10 07:09:07 14° 292° (WNW) 07:11:05 145.475/437.950
STRAND 1 23 Nov 07:09:28 07:14:07 34° 263° (W) 07:18:47 437.568
CUBEBUG 2 23 Nov 07:13:13 07:17:22 82° 286° (WNW) 07:21:31 437.445
Oscar 11 23 Nov 07:18:15 07:21:05 17° 93° (E) 07:23:53 .
CUTE 1.7 + AOD 2 23 Nov 07:29:06 07:32:49 29° 289° (WNW) 07:36:32 437.475
YUBILEINY 23 Nov 07:39:35 07:40:38 10° 301° (WNW) 07:41:40 435.215
ZACube-1 23 Nov 07:49:52 07:54:01 72° 102° (ESE) 07:58:12 437.345
AAUSAT CUBESAT 2 23 Nov 07:53:58 07:58:07 60° 284° (WNW) 08:02:13 437.432
SEEDS 23 Nov 07:55:06 07:58:34 25° 290° (WNW) 08:02:02 437.485
FO-29 23 Nov 07:58:07 08:04:38 65° 260° (W) 08:12:00 435.910
UWE-3 23 Nov 08:05:20 08:09:07 35° 287° (WNW) 08:12:55 435.000/436.395/437.385
HO-68 23 Nov 08:07:21 08:13:31 32° 296° (WNW) 08:19:40 435.675
PCSat 23 Nov 08:23:36 08:28:53 52° 59° (ENE) 08:34:09 145.827
FALCONSAT 3 23 Nov 08:31:02 08:34:32 42° 163° (SSE) 08:38:03 435.103
XW-2A 23 Nov 08:32:23 08:33:58 13° 291° (WNW) 08:35:33 145.665 - 145.685
Max Valier Satellite 23 Nov 08:38:53 08:41:17 16° 94° (E) 08:43:40 145.860
AO-73 23 Nov 08:39:45 08:43:28 32° 288° (WNW) 08:47:12 145.935
UNISAT 6 23 Nov 08:51:21 08:55:56 84° 259° (WSW) 09:00:26 437.425
Oscar 11 23 Nov 08:53:20 08:57:17 36° 288° (WNW) 09:01:14 .
TIGRISAT 23 Nov 08:55:01 08:59:35 84° 256° (WSW) 09:04:05 435.000
PRISM 23 Nov 09:06:03 09:09:59 45° 73° (ENE) 09:13:57 437.425
BEESAT 3 23 Nov 09:26:12 09:27:32 11° 45° (NE) 09:28:51 437.485
DELFI C3 23 Nov 09:36:51 09:40:45 53° 285° (WNW) 09:44:37 145.870
EO-79 23 Nov 09:47:06 09:49:08 13° 66° (ENE) 09:51:09 145.935-145.965
NANOSAT C BR1 23 Nov 09:49:03 09:50:42 12° 65° (ENE) 09:52:22 145.865
AIST 2D 23 Nov 09:50:37 09:53:51 38° 74° (ENE) 09:57:06 435.315
POLYITAN 1 23 Nov 10:01:59 10:05:02 20° 69° (ENE) 10:08:05 437.675
EO-88 23 Nov 10:04:06 10:07:38 47° 285° (WNW) 10:11:08 145.990 - 145.960
PCSat 23 Nov 10:08:09 10:11:49 19° 255° (WSW) 10:15:28 145.827
FALCONSAT 3 23 Nov 10:09:48 10:13:29 75° 178° (S) 10:17:10 435.103
Max Valier Satellite 23 Nov 10:11:59 10:15:04 25° 288° (WNW) 10:18:08 145.860
LO-87 23 Nov 10:20:49 10:23:46 24° 96° (E) 10:26:42 145.935 - 145.965
QB50P2 23 Nov 10:24:27 10:28:25 40° 73° (ENE) 10:32:22 145.880/145.840
ESTCUBE 1 23 Nov 10:28:08 10:31:52 25° 96° (E) 10:35:34 437.505/2401.250
BEESAT 2 23 Nov 10:42:18 10:45:21 20° 51° (NE) 10:48:22 435.950
PRISM 23 Nov 10:43:46 10:45:27 12° 268° (W) 10:47:08 437.425
BEESAT 3 23 Nov 11:01:35 11:05:29 65° 242° (WSW) 11:09:18 437.485
DUCHIFAT 1 23 Nov 11:09:36 11:13:49 86° 257° (WSW) 11:18:03 145.980
SPROUT 23 Nov 11:15:45 11:18:41 18° 94° (E) 11:21:37 437.525
AO-91 23 Nov 11:19:19 11:22:49 18° 65° (ENE) 11:26:18 145.960
EO-79 23 Nov 11:20:22 11:24:26 47° 260° (W) 11:28:33 145.935-145.965
NANOSAT C BR1 23 Nov 11:21:49 11:25:55 51° 260° (W) 11:30:03 145.865
AO-85 23 Nov 11:24:13 11:28:14 27° 52° (NE) 11:32:28 145.980
Gurwin Techsat 1B 23 Nov 11:31:09 11:34:29 17° 64° (ENE) 11:37:48 435.225
POLYITAN 1 23 Nov 11:36:50 11:40:35 30° 263° (W) 11:44:19 437.675
FALCONSAT 3 23 Nov 11:48:52 11:52:29 52° 193° (SSW) 11:56:05 435.103
BUGSAT 1 23 Nov 11:51:58 11:56:07 67° 76° (ENE) 12:00:16 437.445
LO-87 23 Nov 11:54:45 11:56:56 16° 291° (WNW) 11:59:07 145.935 - 145.965
O/OREOS (USA 219) 23 Nov 11:59:57 12:04:20 44° 105° (ESE) 12:08:42 437.305
QB50P2 23 Nov 12:01:57 12:04:20 15° 267° (W) 12:06:41 145.880/145.840
ESTCUBE 1 23 Nov 12:04:45 12:08:34 27° 290° (WNW) 12:12:22 437.505/2401.250
AO-7 23 Nov 12:07:10 12:09:58 12° 48° (NE) 12:12:46 .
VELOX 1 23 Nov 12:13:11 12:17:33 53° 100° (E) 12:21:52 145.980
BEESAT 2 23 Nov 12:19:32 12:23:06 31° 247° (WSW) 12:26:37 435.950
Oscar 19 23 Nov 12:22:35 12:27:41 74° 74° (ENE) 12:32:48 437.125/150
NO-84 23 Nov 12:33:17 12:35:34 17° 122° (ESE) 12:37:58 435.350 FM
M-CUBED/EXP-1 PRIME 23 Nov 12:46:51 12:49:40 22° 64° (ENE) 12:52:39 437.505
DX 1 23 Nov 12:50:45 12:54:32 28° 97° (E) 12:58:17 434.975-435.025
SPROUT 23 Nov 12:50:51 12:54:36 31° 289° (WNW) 12:58:21 437.525
AO-91 23 Nov 12:53:27 12:58:42 58° 260° (W) 13:04:02 145.960
50 SAT 23 Nov 12:55:28 12:58:25 32° 98° (E) 13:01:19 437.505
AO-85 23 Nov 13:04:16 13:08:41 36° 246° (WSW) 13:13:21 145.980
Gurwin Techsat 1B 23 Nov 13:08:42 13:13:54 56° 259° (W) 13:19:09 435.225
UKube-1 23 Nov 13:26:54 13:31:03 45° 100° (E) 13:35:10 .
FALCONSAT 3 23 Nov 13:28:37 13:31:10 18° 207° (SSW) 13:33:43 435.103
O/OREOS (USA 219) 23 Nov 13:40:57 13:43:57 17° 302° (WNW) 13:46:56 437.305
MOZHAYETS 4 23 Nov 13:46:45 13:48:49 13° 92° (E) 13:50:52
VELOX 1 23 Nov 13:51:25 13:53:30 13° 295° (WNW) 13:55:34 145.980
AO-7 23 Nov 13:52:57 14:01:04 62° 67° (ENE) 14:09:12 .
ITUPSAT 1 23 Nov 13:59:35 14:01:43 13° 92° (E) 14:03:51 437.325
Oscar 19 23 Nov 14:06:24 14:07:28 11° 270° (W) 14:08:32 437.125/150
NO-84 23 Nov 14:09:07 14:12:31 41° 319° (NW) 14:16:12 435.350 FM
JUGNU 23 Nov 14:20:08 14:23:15 15° 177° (S) 14:26:21 437.505
ITAMSAT 1 23 Nov 14:20:48 14:25:53 57° 73° (ENE) 14:31:01 435.822/435.867
M-CUBED/EXP-1 PRIME 23 Nov 14:21:14 14:23:58 21° 261° (W) 14:26:52 437.505
DX 1 23 Nov 14:27:08 14:30:32 22° 292° (WNW) 14:33:55 434.975-435.025
UKube-1 23 Nov 15:04:18 15:06:39 14° 294° (WNW) 15:09:00 .
MOZHAYETS 4 23 Nov 15:21:47 15:26:13 52° 286° (WNW) 15:30:40
BEESAT 23 Nov 15:23:31 15:28:16 73° 285° (WNW) 15:32:59 436.000
DOVE 4 23 Nov 15:30:35 15:35:21 44° 72° (ENE) 15:40:19 437.250
ITUPSAT 1 23 Nov 15:35:11 15:39:50 56° 287° (WNW) 15:44:28 437.325
CUBESAT XI-V 23 Nov 15:40:26 15:45:02 53° 100° (E) 15:49:37 437.345
YUBILEINY 23 Nov 15:46:28 15:55:12 58° 79° (E) 16:03:49 435.215
AO-7 23 Nov 15:47:36 15:54:12 26° 264° (W) 16:00:52 .
RS-15 23 Nov 15:55:01 16:03:24 22° 100° (E) 16:11:47 29.354- 29.394
ITAMSAT 1 23 Nov 16:02:40 16:05:39 15° 267° (W) 16:08:39 435.822/435.867
JUGNU 23 Nov 16:08:44 16:11:26 13° 187° (S) 16:14:07 437.505
SRMSAT 23 Nov 16:10:29 16:12:48 12° 170° (S) 16:15:07 437.500
KAITUO 1B 23 Nov 16:11:25 16:12:40 11° 67° (ENE) 16:13:56 145.475/437.950
CUTE-I 23 Nov 16:13:43 16:17:47 23° 66° (ENE) 16:21:54 437.470
XW-2D 23 Nov 16:31:21 16:34:40 31° 72° (ENE) 16:37:59 145.860 - 145.880
XW-2B 23 Nov 16:45:59 16:49:33 46° 75° (ENE) 16:53:09 145.730 - 145.750
HO-68 23 Nov 16:46:02 16:51:47 27° 62° (ENE) 16:57:32 435.675
CUTE 1.7 + AOD 2 23 Nov 16:46:17 16:47:14 11° 65° (ENE) 16:48:10 437.475
NUDT-PHONESAT 23 Nov 16:48:49 16:52:05 32° 73° (ENE) 16:55:23 437.300
KKS-1 23 Nov 16:53:20 16:57:47 69° 102° (ESE) 17:02:12 437.445
DOVE 4 23 Nov 17:09:33 17:13:11 20° 268° (W) 17:16:56 437.250
STARS 23 Nov 17:09:41 17:13:47 38° 99° (E) 17:17:51 437.465
SEEDS 23 Nov 17:10:24 17:12:04 12° 66° (ENE) 17:13:45 437.485
XW-2C 23 Nov 17:11:36 17:15:19 74° 259° (W) 17:19:04 145.795 - 145.815
LilacSat-2 23 Nov 17:17:14 17:20:55 56° 260° (W) 17:24:38 437.200
CUBESAT XI-V 23 Nov 17:19:23 17:21:54 15° 295° (WNW) 17:24:26 437.345
XW-2F 23 Nov 17:19:40 17:23:19 62° 260° (W) 17:27:02 145.980 - 146.000
UWE-3 23 Nov 17:26:46 17:27:25 10° 65° (ENE) 17:28:05 435.000/436.395/437.385
KAITUO 1B 23 Nov 17:42:48 17:46:15 39° 262° (W) 17:49:43 145.475/437.950
YUBILEINY 23 Nov 17:44:19 17:51:20 28° 277° (W) 17:58:21 435.215
CUTE-I 23 Nov 17:52:28 17:57:31 42° 261° (W) 18:02:37 437.470
SRMSAT 23 Nov 17:57:53 18:01:09 15° 181° (S) 18:04:26 437.500
AO-73 23 Nov 17:59:40 18:00:28 10° 65° (ENE) 18:01:14 145.935
RS-15 23 Nov 18:01:56 18:14:16 89° 297° (WNW) 18:26:37 29.354- 29.394
ISS 23 Nov 18:04:54 18:06:48 15° 128° (SE) 18:08:41 437.550
XW-2D 23 Nov 18:06:52 18:08:53 14° 267° (W) 18:10:54 145.860 - 145.880
CUBEBUG 2 23 Nov 18:08:06 18:12:36 59° 75° (ENE) 18:16:59 437.445
CUTE 1.7 + AOD 2 23 Nov 18:18:23 18:22:30 58° 260° (W) 18:26:40 437.475
NUDT-PHONESAT 23 Nov 18:24:24 18:26:01 12° 267° (W) 18:27:38 437.300
HO-68 23 Nov 18:32:01 18:39:02 56° 259° (WSW) 18:46:06 435.675
KKS-1 23 Nov 18:33:03 18:33:42 10° 297° (WNW) 18:34:21 437.445
AAUSAT CUBESAT 2 23 Nov 18:40:59 18:45:01 60° 76° (ENE) 18:49:07 437.432
ZACube-1 23 Nov 18:43:00 18:47:01 39° 73° (ENE) 18:50:57 437.345
SEEDS 23 Nov 18:43:15 18:47:16 49° 261° (W) 18:51:20 437.485
nSIGHT-1 23 Nov 18:46:11 18:49:20 57° 137° (SE) 18:52:31 .
STARS 23 Nov 18:46:58 18:49:47 17° 294° (WNW) 18:52:35 437.465
UWE-3 23 Nov 18:58:54 19:03:20 65° 259° (W) 19:07:38 435.000/436.395/437.385
XW-2A 23 Nov 18:59:01 19:02:17 58° 260° (W) 19:05:34 145.665 - 145.685
NO-84 23 Nov 19:08:21 19:09:13 11° 23° (NNE) 19:10:06 435.350 FM
FO-29 23 Nov 19:11:24 19:17:35 26° 91° (E) 19:23:23 435.910
STRAND 1 23 Nov 19:21:47 19:26:55 83° 284° (WNW) 19:32:00 437.568
AO-73 23 Nov 19:31:55 19:36:10 60° 259° (W) 19:40:20 145.935
ISS 23 Nov 19:39:49 19:42:58 45° 323° (NW) 19:46:08 437.550
Oscar 11 23 Nov 19:44:53 19:49:09 66° 260° (W) 19:53:25 .
SRMSAT 23 Nov 19:47:32 19:49:29 12° 191° (S) 19:51:28 437.500
CUBEBUG 2 23 Nov 19:48:12 19:49:28 11° 269° (W) 19:50:44 437.445
RS-15 23 Nov 20:18:17 20:28:35 30° 323° (NW) 20:38:49 29.354- 29.394
DELFI C3 23 Nov 20:18:57 20:22:49 55° 75° (ENE) 20:26:44 145.870
SO-50 23 Nov 20:19:39 20:24:03 64° 117° (ESE) 20:28:30 436.795
ZACube-1 23 Nov 20:20:56 20:23:24 15° 267° (W) 20:25:50 437.345
nSIGHT-1 23 Nov 20:23:36 20:25:48 17° 332° (NNW) 20:28:00 .
EO-88 23 Nov 20:38:46 20:42:11 43° 75° (ENE) 20:45:39 145.990 - 145.960
NO-84 23 Nov 20:43:27 20:47:31 42° 41° (NE) 20:51:34 435.350 FM
UNISAT 6 23 Nov 20:46:03 20:49:26 23° 95° (E) 20:52:48 437.425
Max Valier Satellite 23 Nov 20:47:16 20:50:55 89° 80° (E) 20:54:35 145.860
TIGRISAT 23 Nov 20:49:34 20:52:56 22° 95° (E) 20:56:17 435.000
FO-29 23 Nov 20:55:21 21:02:59 59° 289° (WNW) 21:10:01 435.910
ESTCUBE 1 23 Nov 21:25:54 21:28:52 18° 67° (ENE) 21:31:50 437.505/2401.250
SO-50 23 Nov 22:02:27 22:04:56 14° 315° (NW) 22:07:26 436.795
SPROUT 23 Nov 22:08:28 22:09:35 11° 65° (ENE) 22:10:43 437.525
O/OREOS (USA 219) 23 Nov 22:12:18 22:16:46 56° 67° (ENE) 22:21:11 437.305
NO-84 23 Nov 22:21:17 22:24:39 23° 236° (SW) 22:27:58 435.350 FM
UNISAT 6 23 Nov 22:22:34 22:26:04 25° 290° (WNW) 22:29:34 437.425
PRISM 23 Nov 22:24:25 22:28:35 76° 283° (WNW) 22:32:42 437.425
TIGRISAT 23 Nov 22:26:03 22:29:33 25° 290° (WNW) 22:33:02 435.000
LO-87 23 Nov 22:26:29 22:30:02 59° 259° (W) 22:33:36 145.935 - 145.965
RS-15 23 Nov 22:40:38 22:47:06 15° 358° (N) 22:53:26 29.354- 29.394
FO-29 23 Nov 22:44:48 22:46:16 11° 308° (NW) 22:47:42 435.910
AIST 2D 23 Nov 22:50:17 22:53:48 70° 100° (E) 22:57:20 435.315
DUCHIFAT 1 23 Nov 22:56:54 22:59:40 17° 94° (E) 23:02:26 145.980
ESTCUBE 1 23 Nov 23:01:09 23:05:19 38° 262° (W) 23:09:31 437.505/2401.250
PCSat 23 Nov 23:02:21 23:07:45 80° 114° (ESE) 23:13:11 145.827
EO-79 23 Nov 23:07:24 23:11:08 31° 97° (E) 23:14:49 145.935-145.965
VELOX 1 23 Nov 23:07:50 23:11:50 34° 71° (ENE) 23:15:52 145.980
NANOSAT C BR1 23 Nov 23:08:36 23:12:12 28° 97° (E) 23:15:47 145.865
POLYITAN 1 23 Nov 23:23:20 23:27:24 48° 100° (E) 23:31:26 437.675
BUGSAT 1 23 Nov 23:38:46 23:39:34 10° 92° (E) 23:40:21 437.445
SPROUT 23 Nov 23:40:42 23:44:55 59° 259° (W) 23:49:10 437.525
DX 1 23 Nov 23:44:21 23:47:26 19° 67° (ENE) 23:50:31 434.975-435.025
QB50P2 23 Nov 23:46:50 23:51:02 75° 283° (WNW) 23:55:12 145.880/145.840
O/OREOS (USA 219) 23 Nov 23:54:13 23:55:35 11° 263° (W) 23:56:56 437.305
UKube-1 24 Nov 00:18:59 00:22:39 28° 70° (ENE) 00:26:20 .
DUCHIFAT 1 24 Nov 00:31:39 00:35:22 32° 288° (WNW) 00:39:03 145.980
ISS 24 Nov 00:34:26 00:35:47 12° 22° (NNE) 00:37:08 437.550
Oscar 19 24 Nov 00:36:54 00:41:29 31° 97° (E) 00:46:03 437.125/150
EO-79 24 Nov 00:43:41 00:46:38 19° 292° (WNW) 00:49:34 145.935-145.965
NANOSAT C BR1 24 Nov 00:44:36 00:47:42 21° 291° (WNW) 00:50:48 145.865
VELOX 1 24 Nov 00:45:12 00:48:19 19° 266° (W) 00:51:28 145.980
AO-91 24 Nov 00:47:20 00:51:18 34° 96° (E) 00:54:52 145.960
BEESAT 3 24 Nov 00:48:22 00:51:58 34° 114° (ESE) 00:55:38 437.485
PCSat 24 Nov 00:48:42 00:51:46 15° 313° (NW) 00:54:52 145.827
50 SAT 24 Nov 00:51:15 00:54:23 49° 260° (W) 00:57:32 437.505
RS-15 24 Nov 00:56:03 01:05:46 27° 34° (NE) 01:15:02 29.354- 29.394
POLYITAN 1 24 Nov 01:00:55 01:02:43 13° 294° (WNW) 01:04:31 437.675
ITUPSAT 1 24 Nov 01:04:32 01:06:35 13° 63° (ENE) 01:08:38 437.325
BUGSAT 1 24 Nov 01:11:17 01:15:09 47° 286° (WNW) 01:19:00 437.445
nSIGHT-1 24 Nov 01:15:17 01:18:00 25° 32° (NNE) 01:20:42 .
DX 1 24 Nov 01:19:23 01:23:20 34° 262° (W) 01:27:20 434.975-435.025
Gurwin Techsat 1B 24 Nov 01:27:15 01:32:34 71° 102° (ESE) 01:37:52 435.225
UKube-1 24 Nov 01:55:16 01:58:36 22° 264° (W) 02:01:59 .
AO-7 24 Nov 01:58:33 02:04:42 22° 95° (E) 02:10:48 .
M-CUBED/EXP-1 PRIME 24 Nov 02:00:12 02:04:14 29° 101° (E) 02:08:15 437.505
BEESAT 2 24 Nov 02:07:14 02:11:13 77° 117° (ESE) 02:15:15 435.950
ISS 24 Nov 02:09:31 02:12:47 68° 40° (NE) 02:16:00 437.550
Oscar 19 24 Nov 02:16:20 02:20:39 28° 292° (WNW) 02:24:59 437.125/150
MOZHAYETS 4 24 Nov 02:20:40 02:25:13 75° 258° (WSW) 02:29:47
AO-91 24 Nov 02:24:36 02:27:22 17° 295° (WNW) 02:29:58 145.960
BEESAT 3 24 Nov 02:26:43 02:29:36 19° 310° (NW) 02:32:30 437.485
BEESAT 24 Nov 02:27:04 02:31:50 84° 257° (WSW) 02:36:38 436.000
ITAMSAT 1 24 Nov 02:36:47 02:40:56 24° 95° (E) 02:45:03 435.822/435.867
ITUPSAT 1 24 Nov 02:39:06 02:43:50 64° 259° (W) 02:48:35 437.325
CUBESAT XI-V 24 Nov 02:41:13 02:45:26 38° 72° (ENE) 02:49:42 437.345
nSIGHT-1 24 Nov 02:51:25 02:54:12 28° 228° (SW) 02:56:59 .
YUBILEINY 24 Nov 02:55:44 02:57:20 11° 75° (ENE) 02:58:56 435.215
RS-15 24 Nov 03:08:19 03:20:12 85° 61° (ENE) 03:31:22 29.354- 29.394
Gurwin Techsat 1B 24 Nov 03:09:15 03:11:51 14° 298° (WNW) 03:14:28 435.225
AO-85 24 Nov 03:16:33 03:20:20 52° 304° (WNW) 03:24:15 145.980
DOVE 4 24 Nov 03:33:44 03:36:30 15° 90° (E) 03:39:11 437.250
M-CUBED/EXP-1 PRIME 24 Nov 03:34:34 03:38:26 27° 295° (WNW) 03:42:18 437.505
BEESAT 2 24 Nov 03:48:28 03:49:26 11° 315° (NW) 03:50:24 435.950
KKS-1 24 Nov 03:48:38 03:52:54 46° 73° (ENE) 03:57:12 437.445
AO-7 24 Nov 03:49:42 03:58:00 72° 291° (WNW) 04:06:18 .
STARS 24 Nov 04:03:56 04:07:35 26° 69° (ENE) 04:11:16 437.465
ITAMSAT 1 24 Nov 04:15:42 04:20:26 36° 290° (WNW) 04:25:07 435.822/435.867
CUBESAT XI-V 24 Nov 04:19:48 04:22:54 18° 267° (W) 04:26:02 437.345
